Weather History for Columbus AFB, MS

Change the Weather History Date:

Saturday, December 22, 2012

  Actual Average Record
Temperature  
Mean Temperature 39 °F -  
Max Temperature 55 °F 51 °F 66 °F (1997)
Min Temperature 23 °F 32 °F 18 °F (2008)
Degree Days  
Heating Degree Days 26    
Moisture  
Dew Point 23 °F    
Average Humidity 63    
Maximum Humidity 85    
Minimum Humidity 28    
Precipitation  
Precipitation 0.00 in - - ()
Sea Level Pressure  
Sea Level Pressure 30.31 in    
Wind  
Wind Speed 1 mph (SSE)    
Max Wind Speed 7 mph    
Max Gust Speed -    
Visibility 10 miles    
Events      
Averages and records for this station are not official NWS values.
T = Trace of Precipitation, MM = Missing Value Source: NWS Daily Summary

Daily Weather History Graph

Daily Weather History Graph

Search for Another Location

Airport:

Trip Planner

Search our weather history database for the weather conditions in past years. The results will help you decide how hot, cold, wet, or windy it might be!

Date:

Astronomy

Dec. 22, 2012 Rise Set
Actual Time 6:55 AM CST 4:50 PM CST
Civil Twilight 6:27 AM CST 5:17 PM CST
Nautical Twilight 5:56 AM CST 5:49 PM CST
Astronomical Twilight 5:25 AM CST 6:19 PM CST
Moon 1:00 PM CST (12/22) 1:49 AM CST (12/22)
Length of Visible Light 10h 50m
Length of Day
9h 55m
Waxing Gibbous, 74% of the Moon is Illuminated
Dec 22
Waxing Gibbous
Dec 28
Full
Jan 4
Last Quarter
Jan 11
New
Jan 18
First Quarter

Hourly Weather History & Observations

Time (CST) Temp. Windchill Dew Point Humidity Pressure Visibility Wind Dir Wind Speed Gust Speed Precip Events Conditions
12:55 AM 25.2 °F - 18.5 °F 76% 30.35 in 10.0 mi Calm Calm - N/A   Clear
1:55 AM 24.8 °F - 18.5 °F 77% 30.35 in 10.0 mi Calm Calm - N/A   Clear
2:55 AM 25.3 °F - 19.6 °F 79% 30.35 in 10.0 mi Calm Calm - N/A   Clear
3:55 AM 24.4 °F - 20.1 °F 84% 30.36 in 10.0 mi Calm Calm - N/A   Clear
4:55 AM 24.4 °F - 20.3 °F 84% 30.35 in 10.0 mi Calm Calm - N/A   Clear
5:55 AM 23.7 °F - 19.0 °F 82% 30.37 in 10.0 mi Calm Calm - N/A   Clear
6:55 AM 23.4 °F - 19.2 °F 84% 30.39 in 10.0 mi Calm Calm - N/A   Clear
7:55 AM 27.7 °F - 23.7 °F 85% 30.40 in 10.0 mi Calm Calm - N/A   Clear
8:55 AM 35.2 °F - 25.7 °F 68% 30.42 in 10.0 mi Calm Calm - N/A   Clear
9:55 AM 40.5 °F - 22.3 °F 48% 30.41 in 10.0 mi Calm Calm - N/A   Clear
10:55 AM 46.2 °F 45.0 °F 15.6 °F 29% 30.38 in 10.0 mi Variable 3.5 mph - N/A   Clear
11:55 AM 48.7 °F - 16.3 °F 28% 30.34 in 10.0 mi Calm Calm - N/A   Clear
12:55 PM 53.1 °F - 20.3 °F 28% 30.31 in 10.0 mi WSW 4.6 mph - N/A   Clear
1:55 PM 54.5 °F - 22.3 °F 29% 30.28 in 10.0 mi South 4.6 mph - N/A   Clear
2:55 PM 55.6 °F - 24.3 °F 30% 30.27 in 10.0 mi South 4.6 mph - N/A   Clear
3:55 PM 54.7 °F - 26.1 °F 33% 30.26 in 10.0 mi SSE 3.5 mph - N/A   Clear
4:55 PM 46.9 °F - 28.8 °F 49% 30.26 in 10.0 mi SE 3.5 mph - N/A   Clear
5:55 PM 40.1 °F 36.9 °F 31.1 °F 70% 30.26 in 10.0 mi SE 4.6 mph - N/A   Clear
6:55 PM 36.5 °F 31.0 °F 28.9 °F 74% 30.25 in 10.0 mi SE 6.9 mph - N/A   Clear
7:55 PM 35.8 °F 30.9 °F 28.2 °F 74% 30.25 in 10.0 mi SE 5.8 mph - N/A   Clear
8:55 PM 33.6 °F - 28.4 °F 81% 30.25 in 10.0 mi Calm Calm - N/A   Clear
9:55 PM 33.3 °F 27.9 °F 28.0 °F 81% 30.24 in 10.0 mi SSE 5.8 mph - N/A   Clear
10:55 PM 35.4 °F 30.5 °F 28.4 °F 76% 30.22 in 10.0 mi SSE 5.8 mph - N/A   Clear
11:55 PM 37.9 °F - 28.2 °F 68% 30.21 in 10.0 mi Calm Calm - N/A   Clear